User: anonymous   Login
Location: Campillo
(40.8621°N, 4.2488°W)
Time: 00:19:51
(UTC+00:00)
Language:

Cosmos 44 - Orbit

View from above orbital plane
View from above orbital plane
View from above satellite
View from above satellite

Ground track
Ground track

The orbit data is extracted from the following two-line orbital elements,

1 00876U 64053A   21217.55965415 -.00000127  00000-0  28068-5 0  9992
2 00876  65.0600 166.0318 0153948 242.3340 116.2067 14.63804143 28482
Epoch (UTC): 05 August 2021 13:25:54
Eccentricity: 0.0153948
inclination: 65.0600°
perigee height: 572 km
apogee height: 789 km
right ascension of ascending node: 166.0318°
argument of perigee: 242.3340°
revolutions per day: 14.63804143
mean anomaly at epoch: 116.2067°
orbit number at epoch: 2848

The dashed part of the orbit path shows where the satellite is in the earth's shadow,  

DLR